User: anonymous   Login
Location: Unspecified
(0.0000°N, 0.0000°E)
Time: 22:29:53
(UTC+00:00)
Language:

APRIZESAT 3 - Orbit

View from above orbital plane
View from above orbital plane
View from above satellite
View from above satellite

Ground track
Ground track

The orbit data is extracted from the following two-line orbital elements,

1 35686U 09041F   15085.14983728  .00001496  00000-0  16882-3 0  9991
2 35686 098.1877 043.8501 0075444 138.8195 221.8746 14.86139375306231
Epoch (UTC): 26 March 2015 03:35:45
Eccentricity: 0.0075444
inclination: 98.1877°
perigee height: 557 km
apogee height: 663 km
right ascension of ascending node: 43.8501°
argument of perigee: 138.8195°
revolutions per day: 14.86139375
mean anomaly at epoch: 221.8746°
orbit number at epoch: 30623

The dashed part of the orbit path shows where the satellite is in the earth's shadow,  

DLR